Location: Leeds
(37.2390°N, 113.3580°W)
Time: 20:53:03
(UTC-06:00)

ISS - All Passes

Search period start: 27 May 2017 00:00
Search period end: 06 June 2017 00:00
Orbit: 402 x 408 km, 51.6° (Epoch: 28 May)

Date Brightness Start Highest point End Pass type
(mag) Time Alt. Az. Time Alt. Az. Time Alt. Az.
27 May - 02:20:12 10° N 02:21:37 12° NNE 02:23:03 10° NE visible
27 May - 03:55:25 10° NW 03:58:40 62° NE 04:01:54 10° ESE visible
27 May - 05:33:48 10° WSW 05:34:45 11° SW 05:35:41 10° SW visible
27 May - 20:33:44 10° SW 20:36:59 63° SE 20:40:15 10° NE daylight
27 May - 22:11:27 10° WNW 22:13:44 17° NNW 22:16:03 10° NNE visible
28 May - 03:03:33 10° NNW 03:06:34 33° NNE 03:09:35 10° E visible
28 May - 04:40:19 10° WNW 04:42:55 22° SW 04:45:32 10° S night (unlit)
28 May - 19:42:08 10° SSW 19:45:03 29° SE 19:47:58 10° ENE daylight
28 May - 21:18:40 10° W 21:21:31 27° NNW 21:24:24 10° NNE visible
29 May - 02:11:50 10° NNW 02:14:23 20° NNE 02:16:55 10° E visible
29 May - 03:47:52 10° WNW 03:51:01 45° SW 03:54:09 10° SSE night (unlit)
29 May - 18:51:14 10° SSE 18:53:10 15° SE 18:55:07 10° E daylight
29 May - 20:26:10 10° WSW 20:29:22 47° NW 20:32:34 10° NE daylight
29 May - 22:05:35 10° NW 22:06:31 11° NNW 22:07:27 10° N visible
30 May - 01:20:16 10° N 01:22:05 14° NNE 01:23:54 10° ENE visible
30 May - 02:55:44 10° NW 02:59:01 83° NE 03:02:18 10° SE night (unlit)
30 May - 19:34:00 10° SW 19:37:18 84° SE 19:40:36 10° NE daylight
30 May - 21:12:08 10° WNW 21:14:10 15° NNW 21:16:11 10° NNE visible
31 May - 00:29:19 10° N 00:29:42 10° NNE 00:30:06 10° NNE visible
31 May - 02:03:47 10° NW 02:06:55 41° NE 02:10:02 10° ESE visible
31 May - 03:40:57 10° W 03:43:10 17° SW 03:45:22 10° S night (unlit)
31 May - 18:42:12 10° SSW 18:45:17 39° SE 18:48:23 10° ENE daylight
31 May - 20:19:12 10° W 20:21:52 22° NNW 20:24:33 10° NNE daylight
01 Jun - 01:11:58 10° NNW 01:14:43 24° NNE 01:17:27 10° E visible
01 Jun - 02:48:14 10° WNW 02:51:15 34° SW 02:54:15 10° SSE night (unlit)
01 Jun - 17:50:55 10° S 17:53:20 19° SE 17:55:46 10° E daylight
01 Jun - 19:26:33 10° WSW 19:29:38 37° NW 19:32:45 10° NE daylight
02 Jun - 00:20:18 10° NNW 00:22:25 16° NNE 00:24:33 10° ENE visible
02 Jun - 01:55:58 10° NW 01:59:15 75° SW 02:02:30 10° SE visible
02 Jun - 18:34:12 10° SW 18:37:29 74° NW 18:40:48 10° NE daylight
02 Jun - 20:12:46 10° NW 20:14:28 13° NNW 20:16:09 10° N daylight
02 Jun - 23:28:54 10° N 23:30:02 11° NNE 23:31:11 10° NE visible
03 Jun - 01:03:55 10° NW 01:07:08 52° NE 01:10:21 10° ESE visible
03 Jun - 02:41:39 10° W 02:43:18 13° SW 02:44:55 10° SSW night (unlit)
03 Jun - 17:42:13 10° SSW 17:45:25 52° SE 17:48:38 10° ENE daylight
03 Jun - 19:19:38 10° WNW 19:22:06 19° NNW 19:24:34 10° NNE daylight
04 Jun - 00:12:01 10° NNW 00:14:57 29° NNE 00:17:51 10° E visible
04 Jun - 01:48:33 10° WNW 01:51:22 26° SW 01:54:09 10° S night (unlit)
04 Jun - 16:50:40 10° S 16:53:25 25° SE 16:56:10 10° ENE daylight
04 Jun - 18:26:50 10° W 18:29:48 30° NNW 18:32:47 10° NNE daylight
04 Jun - 23:20:14 10° NNW 23:22:38 18° NNE 23:25:01 10° ENE visible
05 Jun - 00:56:07 10° WNW 00:59:21 56° SW 01:02:33 10° SE visible
05 Jun - 16:00:01 10° SSE 16:01:29 12° SE 16:02:55 10° ESE daylight
05 Jun - 17:34:21 10° WSW 17:37:35 56° NW 17:40:51 10° NE daylight
05 Jun - 19:13:22 10° NW 19:14:40 12° NNW 19:15:57 10° N daylight
05 Jun - 22:28:39 10° N 22:30:14 13° NNE 22:31:49 10° NE visible
